Regional Weather Roundup
Issued by NWS

Home | Current Version | Previous Version | Graphics & Text | Print | Product List | Glossary On
Versions: 1 2 3 4 5 6 7 8 9 10 11 12 13 14 15 16 17 18 19 20 21 22 23 24 25 26 27 28 29 30 31 32 33 34 35 36 37 38 39 40 41 42 43 44 45 46 47 48 49 50
000
ASUS43 KFSD 220002
RWRSD

WEATHER ROUNDUP FOR SOUTH DAKOTA
NATIONAL WEATHER SERVICE SIOUX FALLS SD
700 PM CDT SAT OCT 21 2017

NOTE: "FAIR" INDICATES FEW OR NO CLOUDS BELOW 12,000 FEET WITH NO
SIGNIFICANT WEATHER AND/OR OBSTRUCTIONS TO VISIBILITY.


SDZ001>005-009-010-012>017-220100-
NORTHWEST AND NORTH CENTRAL SOUTH DAKOTA

CITY           SKY/WX    TMP DP  RH WIND       PRES   REMARKS
BUFFALO          N/A     50  22  33 NW15      29.81R
MOBRIDGE       CLOUDY    53  40  61 NW9       29.79R
$$

SDZ012>016-024>037-041>051-057-063-072>074-220100-
SOUTHWEST AND SOUTH CENTRAL SOUTH DAKOTA

CITY           SKY/WX    TMP DP  RH WIND       PRES   REMARKS
RAPID CTY ARPT CLEAR     49  18  29 NW12      29.92R
PIERRE         CLOUDY    54  36  50 NW13      29.85R
CUSTER         LGT RAIN  42  11  28 W14G21    29.96R
ELLSWORTH AFB  CLEAR     50  18  28 NW13      29.92R
PHILIP         CLOUDY    54  27  35 NW12      29.90R
PINE RIDGE     CLEAR     53  16  23 NW10      29.95R
SPEARFISH      FAIR      50  18  27 W14       29.93R
WINNER         FAIR      54  32  43 W12       29.90R
$$

SDZ004>011-016>023-039-040-220100-
NORTHEAST SOUTH DAKOTA

CITY           SKY/WX    TMP DP  RH WIND       PRES   REMARKS
ABERDEEN       CLOUDY    52  41  66 W9        29.78R
WATERTOWN      PTCLDY    47  41  80 W12       29.78R
BROOKINGS      PTCLDY    48  40  73 W12       29.83R
SISSETON         N/A     51  43  74 NW7       29.73R
$$

SDZ017-020-022-023-036>040-048>070-220100-
SOUTHEAST SOUTH DAKOTA

CITY           SKY/WX    TMP DP  RH WIND       PRES   REMARKS
SIOUX FALLS    MOCLDY    52  40  63 W8        29.86R
HURON          CLEAR     49  37  63 W8        29.83R
CHAMBERLAIN    CLOUDY    54  37  52 W6        29.88R
MITCHELL       CLEAR     53  36  52 W9        29.87R
YANKTON        CLEAR     51  38  60 W3        29.90R
$$

ABBREVIATIONS USED IN REMARKS
   TC - TEMPERATURE IN CELSIUS
  WCI - WIND CHILL INDEX
   HX - HEAT INDEX
  VSB - VISIBILITY




USA.gov is the U.S. government's official web portal to all federal, state and local government web resources and services.